CUBESAT XI 4

Satellite information

Favourite Embed

Satellite Type and Status

PAYLOADIN ORBIT

Key statistics

Satellite CUBESAT XI 4 at a glance.

Uptime

8147

Days in orbit

Revolutions

≈ 14.2

Per day

Orbit

SSO

Sun Synchronous Orbit

Inclination

98.7

Latest

Satellite identification and parameters

Extended collection of information and parameters for CUBESAT XI 4.

Object identification

Identified? True

Debris? False

Object name: CUBESAT XI 4

International designator: 2003-031J

Object number (NORAD): 27848

Object ID (CCSDS): 27848

Country: JAPAN (JPN)

Current information (Y/N): Y

RCS size: SMALL

Orbital parameters

Period: 101.164 minutes

Inclination: 98.6816 deg

SMA: 7191.918 km

Apoapsis: 820.6 km

Periapsis: 806.966 km

RAAN: 298.2419 deg

Eccentricy: 0.00094785

Argument of periapsis: 177.998 deg

Mean anomaly: 182.1238 deg

Mean motion: 14.23428535 rev/day

Mean motion (dot): 0.00000483 rev/day2

B* drag term: 0.00023180704 1/REarth

Two-line elements (TLE)

Creation date: Oct. 19, 2025, 2:20 a.m.

Reference frame: TEME

Reference center: EARTH

Epoch: Oct. 18, 2025, 5:30 p.m. UTC

TLE line 0: 0 CUBESAT XI 4

TLE line 1: 1 27848U 03031J 25291.72926542 .00000483 00000-0 23181-3 0 9995

TLE line 2: 2 27848 98.6816 298.2419 0009478 177.9980 182.1238 14.23428535157020

Live tracking on map

Real-time ground track for satellite CUBESAT XI 4.

In-orbit conjunctions

There are no conjunctions computed for CUBESAT XI 4, at the moment. Check back to stay up to date, as we update our databases every day.

Go to all conjunctions

Associated space launch

MIMOSA (Micro Measurements Of Satellite Acceleration) is a microsatellite to measure atmospheric drag.

CUBESAT XI 4 was lifted into orbit during the mission ‘Rokot / Briz-KM | Mimosa’, on board a Rokot/Briz-KM space rocket.

The launch took place on June 30, 2003, 2:15 p.m. from 133/3 (133L).

For more information about the launch, click the button.

Launch to space Rokot / Briz-KM | Mimosa
Rokot / Briz-KM | Mimosa

Agency: N/A

Status: Launch Successful

Launch date: June 30, 2003, 2:15 p.m. UTC

Rocket: Rokot/Briz-KM

Launch pad: 133/3 (133L)

Location: Plesetsk Cosmodrome, Russian Federation

...

Latest news about this satellite

There are no fresh news available about this satellite. Check back as we update our databases every day.


Newsletter sign-up

Weekly statistics, charts and insights to help you stay on top of the space industry.